MST,Max TemperatureF,Mean TemperatureF,Min TemperatureF,Max Dew PointF,MeanDew PointF,Min DewpointF,Max Humidity, Mean Humidity, Min Humidity, Max Sea Level PressureIn, Mean Sea Level PressureIn, Min Sea Level PressureIn, Max VisibilityMiles, Mean VisibilityMiles, Min VisibilityMiles, Max Wind SpeedMPH, Mean Wind SpeedMPH, Max Gust SpeedMPH,PrecipitationIn, CloudCover, Events, WindDirDegrees
2013-10-1,91,74,57,45,35,27,39,24,14,29.95,29.88,29.82,10,10,7,12,5,,0.00,0,,172
2013-10-2,91,75,59,46,40,36,48,29,15,29.95,29.86,29.79,10,10,5,10,4,,0.00,0,,92
2013-10-3,89,74,60,48,41,36,49,31,15,29.84,29.78,29.69,10,10,5,16,6,21,0.00,0,,219
2013-10-4,86,74,62,45,19,-2,49,17,4,30.01,29.90,29.78,10,10,9,17,7,25,0.00,0,,323
2013-10-5,84,70,57,28,15,9,25,13,6,30.17,30.09,30.01,10,10,4,13,6,21,0.00,0,,335
2013-10-6,89,71,53,28,19,12,30,14,8,30.13,30.05,29.97,10,10,7,18,7,23,0.00,0,,35
2013-10-7,91,73,55,37,22,12,34,15,7,30.00,29.92,29.84,10,10,6,20,6,25,0.00,1,,26
2013-10-8,89,72,55,37,30,21,29,21,10,29.88,29.80,29.71,10,10,4,13,4,18,0.00,0,,200
2013-10-9,80,71,62,54,40,28,46,32,23,29.76,29.70,29.65,10,10,5,18,9,26,0.00,2,,167
2013-10-10,68,60,53,54,43,36,100,55,30,29.97,29.90,29.74,10,10,5,20,7,23,0.08,3,,237
2013-10-11,75,62,48,46,41,36,87,50,25,30.04,29.96,29.91,10,10,10,10,5,,0.00,0,,45
2013-10-12,80,64,48,46,38,32,76,41,18,29.96,29.90,29.84,10,10,10,9,3,,0.00,0,,76
2013-10-13,82,66,50,46,37,32,58,35,16,29.96,29.90,29.85,10,10,6,13,5,16,0.00,0,,245
2013-10-14,82,68,53,45,34,19,62,32,13,30.04,29.97,29.92,10,10,9,12,5,,0.00,0,,313
2013-10-15,82,66,50,34,28,19,54,25,13,29.97,29.91,29.85,10,10,8,10,6,,0.00,0,,305
2013-10-16,78,63,48,32,27,23,43,25,13,30.08,30.01,29.94,10,10,5,9,5,16,0.00,0,,329
2013-10-17,80,64,48,36,28,23,44,26,13,30.06,29.97,29.89,10,10,3,12,6,16,0.00,0,,234
2013-10-18,82,65,48,34,26,21,40,24,12,30.02,29.96,29.92,10,10,4,8,4,,0.00,0,,19
2013-10-19,86,68,50,28,20,16,32,19,7,30.04,29.97,29.91,10,10,6,10,5,,0.00,0,,309
2013-10-20,84,67,50,34,22,16,30,19,8,29.96,29.89,29.82,10,10,3,10,4,,0.00,0,,160
2013-10-21,84,65,46,32,21,14,36,19,9,29.99,29.93,29.88,10,10,4,13,4,,0.00,0,,48
2013-10-22,87,68,50,37,23,18,37,20,10,30.03,29.95,29.88,10,10,4,15,5,20,0.00,0,,52
2013-10-23,89,70,50,28,23,16,30,17,10,29.91,29.86,29.82,10,10,4,21,6,24,0.00,2,,14
2013-10-24,87,74,60,37,25,19,32,18,9,29.94,29.89,29.84,10,10,4,10,4,,0.00,2,,339
2013-10-25,86,68,50,36,26,19,36,22,11,30.07,30.00,29.95,10,9,3,8,3,,0.00,0,,316
2013-10-26,86,68,50,43,31,21,43,24,14,30.10,30.02,29.96,10,9,4,14,5,,0.00,1,,25
2013-10-27,87,70,53,41,31,27,38,25,13,29.96,29.84,29.73,10,10,5,13,5,18,0.00,1,,221
2013-10-28,80,68,57,50,37,28,52,32,17,29.86,29.78,29.73,10,10,4,21,7,32,0.00,2,,198
2013-10-29,73,60,48,41,36,32,66,38,25,29.93,29.89,29.85,10,8,2,16,7,23,0.00,1,,265
2013-10-30,73,60,46,36,31,25,58,38,19,30.03,29.97,29.92,10,10,9,12,6,,0.00,0,,294
2013-10-31,73,60,46,36,28,23,53,32,18,30.13,30.06,30.00,10,10,3,9,4,,0.00,0,,307